Simultaneous Nadir Overpasses (SNOs) Predictions

Prediction of SNOs between GOES-16 and METOP-B Satellite Orbit:

Table of predicted SNOs for the next 14.0 days since TLE Epoch: 3/18/2023
Index Date Time (GOES-16) GOES-16 Lat,Lon METOP-B Lat,Lon Distance(km) Time Diff (sec)
1 03/18/2023 14:24:36 0.05, -75.21 -0.25, -73.97 142.04 80
2 03/20/2023 02:46:14 -0.06, -75.21 -0.81, -78.56 381.57 80
3 03/21/2023 02:22:54 -0.05, -75.22 0.29, -73.56 188.86 80
4 03/22/2023 14:44:25 0.06, -75.25 0.67, -78.13 326.82 80
5 03/23/2023 14:21:05 0.05, -75.26 -0.44, -73.13 244.09 80
6 03/25/2023 02:42:43 -0.06, -75.27 -0.60, -77.71 278.12 80
7 03/26/2023 02:19:23 -0.05, -75.29 0.51, -72.72 292.97 80
8 03/27/2023 14:40:53 0.05, -75.33 0.50, -77.27 221.90 80
9 03/28/2023 14:17:32 0.05, -75.35 -0.62, -72.28 349.50 80
10 03/30/2023 02:39:11 -0.05, -75.36 -0.40, -76.87 171.85 80
11 03/31/2023 02:15:50 -0.04, -75.38 0.72, -71.87 399.96 80
